Location: Prairie State College
(41.5244°N, 87.6382°W)
Time: 00:31:39
(UTC-05:00)

Cosmos 1140 Rocket - Visible Passes

Search period start: 22 August 2017 00:00
Search period end: 01 September 2017 00:00
Orbit: 745 x 768 km, 74.1° (Epoch: 21 August)

Date Brightness Start Highest point End Pass type
(mag) Time Alt. Az. Time Alt. Az. Time Alt. Az.
22 Aug 6.0 21:22:03 10° NW 21:25:30 18° W 21:28:57 10° SW visible
23 Aug 5.2 20:40:35 10° NW 20:45:14 33° W 20:49:53 10° SSW visible
24 Aug 4.1 19:59:40 10° NNW 20:04:51 62° WSW 20:10:00 10° S visible
25 Aug 6.3 21:03:02 10° WNW 21:05:25 13° W 21:07:48 10° WSW visible
26 Aug 5.8 20:21:00 10° NW 20:25:12 25° W 20:29:24 10° SSW visible
29 Aug 6.3 20:01:35 10° NW 20:05:08 19° W 20:08:42 10° SW visible
